This is the latest recevied weather packets stored in our database for station/object AB0TJ. If no packets are shown the sender has not sent any weather packets the latest 10 day(s).
| Time | Temp. | Humidity | Pressure | Rain* | Wind** | Luminosity | Snow |
|---|---|---|---|---|---|---|---|
| 1777596912 | 17.78° C | 25% | 1014.2 hPa | 0 mm | - | 103 W/m² | - |
| 1777596430 | 17.22° C | 26% | 1013.8 hPa | 0 mm | - | 150 W/m² | - |
| 1777595869 | 17.22° C | 27% | 1014 hPa | 0 mm | - | 50 W/m² | - |
| 1777595384 | 17.78° C | 27% | 1014 hPa | 0 mm | - | 67 W/m² | - |
| 1777594819 | 18.89° C | 26% | 1013.7 hPa | 0 mm | - | 131 W/m² | - |
| 1777594284 | 19.44° C | 25% | 1014.1 hPa | 0 mm | - | 233 W/m² | - |
| 1777593704 | 19.44° C | 25% | 1014 hPa | 0 mm | - | 248 W/m² | - |
| 1777593173 | 19.44° C | 25% | 1013.9 hPa | 0 mm | - | 361 W/m² | - |
| 1777592676 | 19.44° C | 25% | 1014 hPa | 0 mm | - | 424 W/m² | - |
| 1777592169 | 18.89° C | 25% | 1013.8 hPa | 0 mm | - | 478 W/m² | - |
| 1777591609 | 18.89° C | 26% | 1014 hPa | 0 mm | - | 462 W/m² | - |
| 1777591094 | 19.44° C | 26% | 1013.6 hPa | 0 mm | - | 472 W/m² | - |
| 1777590509 | 20° C | 24% | 1013.5 hPa | 0 mm | - | 168 W/m² | - |
| 1777589999 | 19.44° C | 24% | 1013.4 hPa | 0 mm | - | 226 W/m² | - |
| 1777589445 | 19.44° C | 25% | 1013.4 hPa | 0 mm | - | 517 W/m² | - |
| 1777589414 | 19.44° C | 25% | 1013.4 hPa | 0 mm | - | 517 W/m² | - |
| 1777588934 | 18.89° C | 25% | 1013.5 hPa | 0 mm | - | 539 W/m² | - |
| 1777588389 | 18.89° C | 26% | 1013.5 hPa | 0 mm | - | 609 W/m² | - |
| 1777587873 | 18.89° C | 25% | 1013.6 hPa | 0 mm | - | 117 W/m² | - |
| 1777587334 | 18.89° C | 24% | 1013.7 hPa | 0 mm | - | 388 W/m² | - |
| 1777586739 | 18.89° C | 24% | 1013.6 hPa | 0 mm | - | 663 W/m² | - |
| 1777586219 | 18.89° C | 23% | 1013.7 hPa | 0 mm | - | 109 W/m² | - |
| 1777585644 | 18.89° C | 24% | 1014 hPa | 0 mm | - | 710 W/m² | - |
| 1777585103 | 18.33° C | 26% | 1014 hPa | 0 mm | - | 694 W/m² | - |
| 1777584555 | 18.33° C | 27% | 1013.8 hPa | 0 mm | - | 715 W/m² | - |
* Rain latest hour (hover to see other rain measurements)
** Current wind speed in m/s (hover to see current wind gust speed)